Location: PSU-Greenbush Astrophysical Observatory
(37.5140°N, 94.9880°W)
Time: 01:44:31
(UTC-06:00)

Vanguard 1 - All Passes

Search period start: 22 January 2020 00:00
Search period end: 01 February 2020 00:00
Orbit: 651 x 3832 km, 34.2° (Epoch: 21 January)

Date Brightness Start Highest point End Pass type
(mag) Time Alt. Az. Time Alt. Az. Time Alt. Az.
22 Jan - 02:13:28 10° SW 02:17:27 11° SW 02:21:57 10° SSW visible
22 Jan - 17:09:15 10° SW 17:13:14 33° SSE 17:17:42 10° E daylight
22 Jan - 19:28:07 10° W 19:32:53 66° S 19:40:19 10° E visible
22 Jan - 21:47:18 10° W 21:53:29 49° SSW 22:04:26 10° SE visible
23 Jan - 00:08:01 10° WSW 00:15:26 25° SSW 00:26:43 10° SSE night (unlit)
23 Jan - 15:13:02 10° S 15:14:34 11° SSE 15:16:01 10° SE daylight
23 Jan - 17:29:49 10° SW 17:34:00 43° SSE 17:38:55 10° E daylight
23 Jan - 19:48:57 10° W 19:53:50 64° S 20:01:35 10° ESE visible
23 Jan - 22:08:18 10° W 22:14:33 40° SSW 22:25:17 10° SE visible
24 Jan - 00:30:14 10° WSW 00:36:43 18° SSW 00:45:40 10° S night (unlit)
24 Jan - 15:32:05 10° SSW 15:35:22 18° SSE 15:38:23 10° ESE daylight
24 Jan - 17:50:33 10° WSW 17:54:50 53° S 18:00:04 10° E visible
24 Jan - 20:09:49 10° W 20:14:47 58° S 20:22:48 10° ESE visible
24 Jan - 22:29:28 10° W 22:35:40 32° SSW 22:45:49 10° SE night (unlit)
25 Jan - 00:53:58 10° SW 00:58:03 12° SSW 01:02:54 10° S night (unlit)
25 Jan - 15:52:08 10° SW 15:56:11 25° SSE 15:59:52 10° ESE daylight
25 Jan - 18:11:22 10° WSW 18:15:42 60° S 18:21:12 10° E visible
25 Jan - 20:30:43 10° W 20:35:44 50° SSW 20:43:54 10° ESE visible
25 Jan - 22:50:53 10° WSW 22:56:49 25° SSW 23:05:53 10° SSE night (unlit)
26 Jan - 16:12:36 10° SW 16:17:00 35° SSE 16:21:04 10° E daylight
26 Jan - 18:32:14 10° W 18:36:36 61° S 18:42:20 10° E visible
26 Jan - 20:51:40 10° W 20:56:43 41° SSW 21:04:50 10° SE visible
26 Jan - 23:12:46 10° WSW 23:18:00 18° SSW 23:25:16 10° SSE night (unlit)
27 Jan - 14:14:28 10° SSW 14:18:02 16° SSE 14:20:59 10° ESE daylight
27 Jan - 16:33:18 10° WSW 16:37:50 45° SSE 16:42:09 10° E daylight
27 Jan - 18:53:07 10° W 18:57:30 58° S 19:03:26 10° ESE visible
27 Jan - 21:12:44 10° W 21:17:43 32° SSW 21:25:28 10° SE visible
27 Jan - 23:35:55 10° SW 23:39:14 12° SSW 23:43:12 10° S night (unlit)
28 Jan - 14:34:16 10° SSW 14:38:57 23° SSE 14:42:39 10° ESE daylight
28 Jan - 16:54:09 10° WSW 16:58:41 53° S 17:03:10 10° E daylight
28 Jan - 19:14:01 10° W 19:18:24 50° S 19:24:28 10° ESE visible
28 Jan - 21:34:01 10° WSW 21:38:46 24° SSW 21:45:44 10° SSE visible
29 Jan - 12:38:35 10° SSE 12:39:19 10° SSE 12:40:02 10° SSE daylight
29 Jan - 14:54:36 10° SW 14:59:52 31° SSE 15:03:53 10° E daylight
29 Jan - 17:15:04 10° WSW 17:19:33 59° S 17:24:10 10° E daylight
29 Jan - 19:34:58 10° W 19:39:19 41° SSW 19:45:23 10° SE visible
29 Jan - 21:55:44 10° WSW 21:59:51 18° SSW 22:05:24 10° SSE visible
30 Jan - 12:55:52 10° SSW 13:00:25 16° SSE 13:03:57 10° ESE daylight
30 Jan - 15:15:16 10° SW 15:20:45 40° SSE 15:24:57 10° E daylight
30 Jan - 17:36:01 10° W 17:40:26 59° S 17:45:09 10° ESE daylight
30 Jan - 19:56:00 10° W 20:00:14 32° SSW 20:06:06 10° SE visible
30 Jan - 22:18:36 10° SW 22:20:59 12° SSW 22:23:44 10° S night (unlit)
31 Jan - 13:15:26 10° SSW 13:21:28 22° SSE 13:25:45 10° ESE daylight
31 Jan - 15:36:08 10° WSW 15:41:38 49° S 15:45:55 10° E daylight
31 Jan - 17:56:58 10° W 18:01:19 53° S 18:06:07 10° ESE daylight
31 Jan - 20:17:13 10° WSW 20:21:10 24° SSW 20:26:29 10° SSE visible
